Weather Roundup
Issued by NWS

Home | Current Version | Previous Version | Graphics & Text | Print | Product List | Glossary Off
Versions: 1 2 3 4 5 6 7 8 9 10 11 12 13 14 15 16 17 18 19 20 21 22 23 24 25 26 27 28 29 30 31 32 33 34 35 36 37 38 39 40 41 42 43 44 45 46 47 48 49 50

000
NZUS93 KARX 242059
HRRWXR

CURRENT HOURLY OBSERVATIONS ACROSS
MUCH OF THE UPPER MISSISSIPPI VALLEY
NATIONAL WEATHER SERVICE LA CROSSE WI
400 PM CDT SUN MAY 24 2015


...SOUTHEAST MINNESOTA...


CITY           SKY/WX    TMP DP  RH WIND       PRES   REMARKS
ROCHESTER      LGT RAIN  58  57  97 E15       29.91F FOG
ROCHESTER/MAYO CLOUDY    58  58 100 E8        29.92S
WINONA         DRIZZLE   59  57  94 SE9       29.93F
AUSTIN         LGT RAIN  59  57  94 SE14      29.87F
ALBERT LEA     DRIZZLE   59  59 100 SE9       29.87F
DODGE CENTER   RAIN      59  57  94 E16       29.90F
PRESTON        CLOUDY    57  55  94 SE9       29.92F
OWATONNA       LGT RAIN  61  57  88 E14       29.89F
FARIBAULT      LGT RAIN  61  57  88 E10G16    29.91F
$$

...ELSEWHERE IN MINNESOTA...


CITY           SKY/WX    TMP DP  RH WIND       PRES   REMARKS
MINNEAPOLIS    LGT RAIN  61  58  90 E12       29.93F
INTNL FALLS    CLOUDY    77  41  27 CALM      29.96F
DULUTH         CLOUDY    70  45  40 E6        29.99F
RED WING       LGT RAIN  61  57  88 E10G16    29.92F
REDWOOD FALLS  LGT RAIN  60  58  92 E12       29.88F FOG
MANKATO        CLOUDY    61  57  88 E12G21    29.89F
WORTHINGTON    CLOUDY    61  55  82 E13       29.84F
FAIRMONT       CLOUDY    61  55  82 E12       29.84F
$$

...SOUTHWEST WISCONSIN...


CITY           SKY/WX    TMP DP  RH WIND       PRES   REMARKS
LA CROSSE      LGT RAIN  61  57  87 SE9       29.94F
PRAIRIE DU CHI CLOUDY    60  57  91 E12       29.95F
BOSCOBEL       LGT RAIN  61  58  90 VRB3      29.97F FOG
LONE ROCK      LGT RAIN  59  56  89 E13       29.99F FOG
PLATTEVILLE    CLOUDY    60  58  96 E12       29.96F
FORT MC COY    RAIN      58  57  95 E9        29.99F
CAMP DOUGLAS   LGT RAIN  57  57 100 SE10      30.00F FOG
VIROQUA        CLOUDY    57  57 100 SE17      29.98S
WIS DELLS      RAIN      57  55  92 E13G20    30.01F
$$

...ELSEWHERE IN WISCONSIN...


CITY           SKY/WX    TMP DP  RH WIND       PRES   REMARKS
MILWAUKEE      CLOUDY    53  47  79 E10       30.05F
MADISON        RAIN      59  56  89 E13       30.00F FOG
GREEN BAY      LGT RAIN  63  58  83 SE9       30.08F
EAU CLAIRE     NOT AVBL
BLACK RVR FLS  HVY RAIN  59  59 100 E3        29.99F
MEDFORD        RAIN      57  55  94 SE5       30.04F
WAUSAU         LGT RAIN  59  56  89 SE9       30.04F
WIS RAPIDS     RAIN      58  55  90 SE9       30.04F FOG
MARSHFIELD     LGT RAIN  60  56  86 SE14G21   30.01F
RICE LAKE      LGT RAIN  60  56  87 E9        30.01F
$$

...NORTHEAST IOWA...


CITY           SKY/WX    TMP DP  RH WIND       PRES   REMARKS
DECORAH        CLOUDY    59  57  94 SE12G22   29.91F
MASON CITY     FOG       61  60  97 SE12      29.86F VSB 1
CHARLES CITY   CLOUDY    61  61 100 SE15      29.89F
OELWEIN        CLOUDY    63  61  94 SE15      29.90F
$$

...ELSEWHERE IN IOWA...


CITY           SKY/WX    TMP DP  RH WIND       PRES   REMARKS
DES MOINES     CLOUDY    71  64  78 S12       29.81F
IOWA CITY      PTSUNNY   72  67  84 SE7       29.88F
FORT DODGE     CLOUDY    63  61  94 S9        29.82F
$$

...NORTHERN ILLINOIS...


CITY           SKY/WX    TMP DP  RH WIND       PRES   REMARKS
CHICAGO-OHARE  LGT RAIN  69  55  60 NE7       30.00F
CHICAGO-MIDWAY LGT RAIN  70  57  63 E10       29.99F
MOLINE         RAIN      74  67  78 S8        29.88F
ROCKFORD       LGT RAIN  68  62  81 E13       29.97F
PEORIA         CLOUDY    82  64  54 S14       29.92F
$$

NOTE: "FAIR" INDICATES FEW OR NO CLOUDS BELOW 12,000 FEET WITH NO
SIGNIFICANT WEATHER AND/OR OBSTRUCTIONS TO VISIBILITY. WIND
SPEEDS ARE IN MILES-PER-HOUR.



USA.gov is the U.S. government's official web portal to all federal, state and local government web resources and services.